date,time,DOY,Ta_1_1_1,RH_1_1_1,LWin_1_1_1,LWout_1_1_1,SWin_1_1_1,SWout_1_1_1,PPFD_1_1_1,SWC_1_1_1,Ts_1_1_1
[yyyy-mm-dd],[HH:MM],[ddd.ddd],[K],[%],[W+1m-2],[W+1m-2],[W+1m-2],[W+1m-2],[µmol+1m-2s-1],[m+3m-3],[K]
2012-11-08,00:30,313.020,273.99448275862062,97.647931034482795,-7.3182758620689672,-9999.0,-0.55827586206896551,-1.4206896551724140,2.06896551724137937E-003,-9999.0,279.90999999999991
2012-11-08,01:00,313.041,273.90633333333335,97.681666666666700,-7.1723333333333352,-9999.0,-0.61499999999999999,-1.3976666666666668,2.66666666666666658E-003,-9999.0,279.90999999999991
2012-11-08,01:30,313.062,273.80366666666674,97.692333333333366,-6.7919999999999972,-9999.0,-0.53266666666666673,-1.3623333333333332,1.66666666666666677E-003,-9999.0,279.90999999999991
2012-11-08,02:00,313.083,273.73233333333332,97.485333333333315,-6.6266666666666669,-9999.0,-0.50500000000000012,-1.3446666666666673,2.00000000000000004E-003,-9999.0,279.90999999999991
2012-11-08,02:30,313.104,273.77966666666674,95.942666666666653,-6.6240000000000006,-9999.0,-0.43499999999999989,-1.4133333333333333,2.33333333333333353E-003,-9999.0,279.90999999999991
2012-11-08,03:00,313.124,273.77533333333344,94.345333333333343,-6.4560000000000004,-9999.0,-0.39400000000000002,-1.3550000000000002,4.66666666666666619E-003,-9999.0,279.90999999999991
2012-11-08,03:30,313.145,273.78433333333339,92.884333333333331,-6.4936666666666669,-9999.0,-0.37666666666666671,-1.1746666666666670,3.33333333333333431E-004,-9999.0,279.90999999999991
2012-11-08,04:00,313.166,273.81099999999998,91.639666666666699,-6.5483333333333329,-9999.0,-0.36399999999999999,-0.89466666666666661,1.66666666666666677E-003,-9999.0,279.90999999999991
2012-11-08,04:30,313.187,273.85499999999996,91.120000000000033,-6.6096666666666684,-9999.0,-0.41666666666666669,-0.82499999999999973,2.33333333333333353E-003,-9999.0,279.90999999999991
2012-11-08,05:00,313.208,273.85266666666672,90.400333333333307,-6.8499999999999988,-9999.0,-0.46466666666666678,-0.88233333333333319,-3.33333333333332997E-004,-9999.0,279.90999999999991
2012-11-08,05:30,313.229,273.81699999999995,90.663333333333355,-7.3753333333333329,-9.2159999999999993,-0.59866666666666657,-1.1486666666666669,2.33333333333333353E-003,-9999.0,279.90999999999991
2012-11-08,06:00,313.249,273.65933333333334,93.332999999999998,-7.1159999999999997,-9.5031249999999989,-0.46299999999999991,-1.6659999999999999,1.33333333333333329E-003,-9999.0,279.90999999999991
2012-11-08,06:30,313.270,273.50433333333331,94.686666666666653,-7.0356666666666676,-9999.0,-0.45399999999999990,-1.6279999999999997,7.03333333333333310E-002,-9999.0,279.90999999999991
2012-11-08,07:00,313.291,273.38933333333335,95.240666666666655,-6.7433333333333341,-9999.0,5.13333333333333072E-002,0.61700000000000021,5.4946666666666681,-9999.0,279.90999999999991
2012-11-08,07:30,313.312,273.39733333333328,95.468666666666664,-5.9970000000000008,-9999.0,1.0609999999999999,11.745333333333333,27.639666666666667,-9999.0,279.90999999999991
2012-11-08,08:00,313.333,273.54433333333338,94.582999999999984,-4.9950000000000010,-8.9729411764705880,2.9423333333333326,31.899000000000004,67.160333333333327,-9999.0,279.90999999999991
2012-11-08,08:30,313.354,273.91300000000007,91.996000000000009,-4.5266666666666664,-8.4114285714285710,9.3033333333333346,90.167999999999992,181.57133333333331,-9999.0,279.90999999999991
2012-11-08,09:00,313.374,274.51199999999994,87.298666666666648,-4.2056666666666658,-9999.0,15.983333333333336,151.66800000000001,300.42433333333338,-9999.0,279.90999999999991
2012-11-08,09:30,313.395,274.84233333333333,84.822000000000017,-4.7073333333333345,-9999.0,14.396999999999998,144.27266666666665,295.33099999999996,-9999.0,279.90999999999991
2012-11-08,10:00,313.416,275.68900000000002,80.697666666666649,-4.2830000000000004,-9999.0,31.163333333333334,282.66600000000005,557.50466666666682,-9999.0,279.90999999999991
2012-11-08,10:30,313.437,275.67733333333331,80.423333333333346,-4.6953333333333331,-9999.0,19.325666666666670,185.14666666666665,384.69766666666669,-9999.0,279.90999999999991
2012-11-08,11:00,313.458,276.62600000000003,76.559333333333342,-1.8333333333333337,-9999.0,45.560333333333340,412.68766666666670,802.89066666666668,-9999.0,279.90999999999991
2012-11-08,11:30,313.479,277.20533333333339,73.992999999999995,-3.3086666666666669,-9999.0,23.727999999999998,227.05866666666665,457.56633333333332,-9999.0,279.90999999999991
2012-11-08,12:00,313.499,277.22100000000006,74.664333333333346,-3.0543333333333336,-9999.0,25.550666666666665,240.86166666666668,482.24733333333336,-9999.0,279.90999999999991
2012-11-08,12:30,313.520,277.54466666666667,73.605666666666664,-4.1800000000000006,-9999.0,25.831333333333326,243.44099999999995,494.11100000000005,-9999.0,279.90999999999991
2012-11-08,13:00,313.541,278.51466666666676,69.553666666666658,-5.5286666666666671,-9999.0,44.081999999999994,398.87166666666661,788.21900000000016,-9999.0,279.90999999999991
2012-11-08,13:30,313.562,278.83799999999997,67.533333333333346,-5.9063333333333334,-9999.0,33.307999999999993,310.10066666666665,621.79500000000007,-9999.0,279.90999999999991
2012-11-08,14:00,313.583,279.46166666666676,65.247666666666674,-6.9393333333333338,-9999.0,34.113999999999997,317.66033333333326,626.45000000000016,-9999.0,279.90999999999991
2012-11-08,14:30,313.604,280.03666666666680,62.398666666666678,-8.7616666666666649,-9999.0,28.822000000000006,264.21433333333340,520.36299999999983,-9999.0,279.90999999999991
2012-11-08,15:00,313.624,280.39566666666661,61.453333333333354,-9.2023076923076914,-9999.0,22.991000000000000,200.06666666666663,392.27199999999999,-9999.0,279.90999999999991
2012-11-08,15:30,313.645,280.60599999999999,61.510000000000012,-9.9000000000000004,-9999.0,15.206666666666669,123.85966666666670,245.58066666666667,-9999.0,279.90999999999991
2012-11-08,16:00,313.666,280.68133333333338,60.808333333333323,-9999.0,-9999.0,7.8343333333333307,60.325666666666656,125.21566666666665,-9999.0,279.90999999999991
2012-11-08,16:30,313.687,280.07466666666670,63.716000000000001,-9999.0,-9999.0,2.1376666666666666,13.536999999999999,36.224666666666657,-9999.0,279.90999999999991
2012-11-08,17:00,313.708,279.42933333333337,67.236666666666665,-9999.0,-9999.0,0.34566666666666668,-2.1056666666666670,3.9846666666666670,-9999.0,279.90999999999991
2012-11-08,17:30,313.729,278.82499999999993,70.490333333333325,-9999.0,-9999.0,0.10566666666666670,-3.8149999999999999,3.23333333333333389E-002,-9999.0,279.90999999999991
2012-11-08,18:00,313.749,278.24699999999996,73.392333333333326,-9999.0,-9999.0,0.15633333333333335,-3.7763333333333340,6.66666666666666536E-004,-9999.0,279.90999999999991
2012-11-08,18:30,313.770,278.17999999999995,73.795000000000002,-9999.0,-9999.0,0.32500000000000001,-2.6530000000000000,1.66666666666666677E-003,-9999.0,279.90999999999991
2012-11-08,19:00,313.791,278.19799999999998,74.090000000000003,-9999.0,-9999.0,-0.25566666666666665,-1.7356666666666667,1.33333333333333329E-003,-9999.0,279.90999999999991
2012-11-08,19:30,313.812,278.10833333333335,74.742333333333335,-9.9600000000000009,-9999.0,-0.32100000000000001,-1.4926666666666668,6.66666666666666644E-004,-9999.0,279.90999999999991
2012-11-08,20:00,313.833,278.10333333333335,75.208666666666659,-9.7285714285714278,-9999.0,-0.51233333333333342,-1.0006666666666666,6.66666666666666644E-004,-9999.0,279.90999999999991
2012-11-08,20:30,313.854,278.09566666666666,76.064000000000007,-9.4196551724137922,-9999.0,-0.61700000000000010,-1.0656666666666668,2.33333333333333353E-003,-9999.0,279.90999999999991
2012-11-08,21:00,313.874,278.02133333333330,75.655999999999977,-9.6662962962962968,-9999.0,-0.63766666666666671,-1.1256666666666668,1.33333333333333329E-003,-9999.0,279.90999999999991
2012-11-08,21:30,313.895,278.08533333333338,75.163333333333341,-9.7908333333333335,-9999.0,-0.66866666666666674,-1.1493333333333335,1.33333333333333329E-003,-9999.0,279.90999999999991
2012-11-08,22:00,313.916,278.24799999999999,73.899333333333317,-9999.0,-9999.0,-0.65766666666666684,-1.1403333333333336,1.33333333333333329E-003,-9999.0,279.90999999999991
2012-11-08,22:30,313.937,278.16466666666662,74.141333333333321,-9999.0,-9999.0,-0.83133333333333326,-1.3186666666666664,3.33333333333333431E-004,-9999.0,279.90999999999991
2012-11-08,23:00,313.958,278.00299999999999,75.126000000000005,-9.3750000000000018,-9999.0,-0.68566666666666654,-1.1993333333333331,1.33333333333333329E-003,-9999.0,279.90999999999991
2012-11-08,23:30,313.979,277.64733333333339,77.280000000000001,-8.9840000000000000,-9999.0,-0.73100000000000009,-1.2473333333333334,3.33333333333333322E-004,-9999.0,279.90999999999991
2012-11-09,00:00,314.000,277.43766666666670,79.059999999999974,-8.7313333333333354,-9999.0,-0.68466666666666665,-1.1910000000000001,6.66666666666666644E-004,-9999.0,279.90999999999991
